TimeEST,TemperatureF,Dew PointF,Humidity,Sea Level PressureIn,VisibilityMPH,Wind Direction,Wind SpeedMPH,Gust SpeedMPH,PrecipitationIn,Events,Conditions,WindDirDegrees,DateUTC
12:53 AM,43.0,36.0,76,30.35,10.0,Calm,Calm,-,N/A,,Clear,0,2012-11-11 05:53:00
1:53 AM,43.0,37.0,80,30.35,10.0,Calm,Calm,-,N/A,,Clear,0,2012-11-11 06:53:00
2:53 AM,41.0,36.0,82,30.35,10.0,Calm,Calm,-,N/A,,Clear,0,2012-11-11 07:53:00
3:53 AM,42.1,35.1,76,30.35,10.0,Calm,Calm,-,N/A,,Clear,0,2012-11-11 08:53:00
4:53 AM,39.9,35.1,83,30.37,10.0,Calm,Calm,-,N/A,,Clear,0,2012-11-11 09:53:00
5:53 AM,39.9,36.0,86,30.38,10.0,Calm,Calm,-,N/A,,Clear,0,2012-11-11 10:53:00
6:53 AM,39.2,35.6,87,30.41,10.0,Calm,Calm,-,N/A,,Clear,0,2012-11-11 11:53:00
7:53 AM,42.1,36.0,79,30.43,10.0,Calm,Calm,-,N/A,,Clear,0,2012-11-11 12:53:00
8:53 AM,53.1,39.0,59,30.44,10.0,Calm,Calm,-,N/A,,Clear,0,2012-11-11 13:53:00
9:53 AM,59.0,42.8,55,30.46,10.0,Calm,Calm,-,N/A,,Partly Cloudy,0,2012-11-11 14:53:00
10:53 AM,64.0,44.1,48,30.45,10.0,Variable,5.8,-,N/A,,Partly Cloudy,0,2012-11-11 15:53:00
11:53 AM,66.9,46.9,49,30.43,10.0,SW,8.1,-,N/A,,Scattered Clouds,220,2012-11-11 16:53:00
12:53 PM,71.1,48.0,44,30.40,10.0,SSW,12.7,18.4,N/A,,Mostly Cloudy,210,2012-11-11 17:53:00
1:53 PM,70.0,46.9,44,30.38,10.0,SSW,9.2,-,N/A,,Mostly Cloudy,200,2012-11-11 18:53:00
2:53 PM,70.0,46.9,44,30.37,10.0,SW,9.2,26.5,N/A,,Overcast,230,2012-11-11 19:53:00
3:53 PM,70.0,46.9,44,30.36,10.0,South,6.9,-,N/A,,Mostly Cloudy,180,2012-11-11 20:53:00
4:53 PM,66.0,48.0,52,30.35,10.0,SE,5.8,-,N/A,,Mostly Cloudy,130,2012-11-11 21:53:00
5:53 PM,62.1,48.9,62,30.36,10.0,SE,3.5,-,N/A,,Mostly Cloudy,130,2012-11-11 22:53:00
6:53 PM,61.0,48.9,64,30.37,10.0,SE,3.5,-,N/A,,Mostly Cloudy,130,2012-11-11 23:53:00
7:53 PM,57.0,48.9,74,30.37,10.0,ESE,5.8,-,N/A,,Scattered Clouds,120,2012-11-12 00:53:00
8:53 PM,59.0,50.0,72,30.37,10.0,Calm,Calm,-,N/A,,Mostly Cloudy,0,2012-11-12 01:53:00
9:53 PM,60.1,50.0,69,30.37,10.0,East,3.5,-,N/A,,Overcast,90,2012-11-12 02:53:00
10:53 PM,60.1,51.1,72,30.36,10.0,ESE,8.1,-,N/A,,Mostly Cloudy,110,2012-11-12 03:53:00
11:53 PM,60.1,53.1,78,30.35,10.0,SSE,5.8,-,N/A,,Overcast,160,2012-11-12 04:53:00